Location: Allos
(44.2333°N, 6.6333°E)
Time: 16:59:39
(UTC+00:00)

Cosmos 1821 Rocket - Visible Passes

Search period start: 16 April 2021 00:00
Search period end: 26 April 2021 00:00
Orbit: 945 x 1005 km, 82.9° (Epoch: 16 April)

Date Brightness Start Highest point End Pass type
(mag) Time Alt. Az. Time Alt. Az. Time Alt. Az.
16 Apr 6.0 00:57:18 10° NNE 01:02:08 22° ENE 01:06:58 10° ESE visible
16 Apr 4.0 02:41:47 10° NNW 02:48:01 64° W 02:52:03 23° SSW visible
17 Apr 5.2 01:21:52 10° N 01:27:43 38° ENE 01:31:52 18° SE visible
17 Apr 4.6 03:07:21 10° NNW 03:13:01 36° W 03:16:29 21° SW visible
18 Apr 6.6 00:04:55 10° NE 00:06:25 11° ENE 00:07:57 10° ENE visible
18 Apr 4.3 01:46:48 10° N 01:53:06 65° E 01:56:23 30° SSE visible
18 Apr 5.3 03:33:22 10° NW 03:37:52 21° W 03:41:00 15° WSW visible
19 Apr 6.1 00:27:51 10° NNE 00:32:17 19° ENE 00:36:21 11° ESE visible
19 Apr 3.9 02:12:00 10° NNW 02:18:19 74° W 02:20:57 38° S visible
19 Apr 5.8 04:00:50 10° WNW 04:02:33 11° WNW 04:04:15 10° W visible
20 Apr 5.4 00:52:16 10° N 00:57:55 33° ENE 01:00:59 22° ESE visible
20 Apr 4.4 02:37:28 10° NNW 02:43:23 43° W 02:45:36 32° SW visible
21 Apr 4.5 01:17:07 10° N 01:23:21 56° ENE 01:25:39 37° SE visible
21 Apr 5.1 03:03:20 10° NNW 03:08:16 25° W 03:10:17 21° WSW visible
21 Apr 6.3 23:58:28 10° NNE 00:02:24 17° ENE 00:05:46 12° E visible
22 Apr 3.9 01:42:14 10° N 01:48:38 86° W 01:50:23 51° S visible
22 Apr 5.7 03:30:04 10° NW 03:33:00 14° WNW 03:35:01 12° W visible
23 Apr 5.6 00:22:42 10° NNE 00:28:06 28° ENE 00:30:31 22° ESE visible
23 Apr 4.3 02:07:38 10° NNW 02:13:44 50° W 02:15:09 43° SW visible
24 Apr 4.7 00:47:27 10° N 00:53:36 48° ENE 00:55:18 39° ESE visible
24 Apr 4.9 02:33:21 10° NNW 02:38:40 29° W 02:39:56 27° WSW visible
24 Apr 6.3 23:29:13 10° NNE 23:32:31 14° ENE 23:35:30 11° E visible
25 Apr 4.0 01:12:30 10° N 01:18:55 83° E 01:20:08 61° SSE visible
25 Apr 5.6 02:59:44 10° NW 03:03:26 16° W 03:04:45 15° W visible
